Jackson, MI

5:50 PM EDT on September 19, 2019 (GMT -0400)
Jackson County-Reynolds

Weather History for KJXN - July, 2019

Change the Weather History Date:

Friday, July 19, 2019

  Actual Average Record
Temperature  
Mean Temperature 85 °F 71 °F  
Max Temperature 93 °F 82 °F 98 °F (1977)
Min Temperature 77 °F 60 °F 46 °F (2003)
Degree Days  
Heating Degree Days 0 0  
Month to date heating degree days 0 1  
Since 1 June heating degree days 58 56  
Since 1 July heating degree days 0 1  
Cooling Degree Days 20 7  
Month to date cooling degree days 205 131  
Year to date cooling degree days 308 294  
Since 1 June cooling degree days 298 257  
Growing Degree Days 34 (Base 50)    
Moisture  
Dew Point 76 °F    
Average Humidity 81    
Maximum Humidity 97    
Minimum Humidity 64    
Precipitation  
Precipitation 0.00 in 0.12 in 1.27 in (1950)
Month to date precipitation 1.61 2.12  
Year to date precipitation 18.33 15.99  
Sea Level Pressure  
Sea Level Pressure 29.85 in    
Wind  
Wind Speed 11 mph (SSW)    
Max Wind Speed 20 mph    
Max Gust Speed 28 mph    
Visibility 10 miles    
Events Thunderstorm    
T = Trace of Precipitation, MM = Missing Value Source: NWS Daily Summary

Daily Weather History Graph

Daily Weather History Graph

Search for Another Location

Airport or City:

Astronomy

Jul. 19, 2019 Rise Set
Actual Time 6:17 AM EDT 9:09 PM EDT
Civil Twilight 5:44 AM EDT 9:42 PM EDT
Nautical Twilight 5:02 AM EDT 10:24 PM EDT
Astronomical Twilight 4:14 AM EDT 11:13 PM EDT
Moon 11:05 PM EDT 8:45 AM EDT
Length of Visible Light 15h 58m
Length of Day
14h 51m
Waning Gibbous, 93% of the Moon is Illuminated
Jul 19
Waning Gibbous
Jul 24
Last Quarter
Jul 31
New
Aug 7
First Quarter
Aug 15
Full

Hourly Weather History & Observations

Time (EDT) Temp. Heat Index Dew Point Humidity Pressure Visibility Wind Dir Wind Speed Gust Speed Precip Events Conditions
12:56 AM 78.1 °F - 75.0 °F 90% 29.82 in 10.0 mi SSW 5.8 mph - N/A   Clear
1:56 AM 80.1 °F 85.1 °F 75.0 °F 85% 29.81 in 10.0 mi SSW 11.5 mph - N/A   Clear
2:56 AM 80.1 °F 85.4 °F 75.9 °F 87% 29.82 in 10.0 mi SW 10.4 mph - N/A   Clear
3:56 AM 80.1 °F 85.4 °F 75.9 °F 87% 29.82 in 10.0 mi SSW 11.5 mph - N/A   Overcast
4:25 AM 80.1 °F 85.4 °F 75.9 °F 87% 29.84 in 10.0 mi SSW 13.8 mph 20.7 mph N/A   Partly Cloudy
4:56 AM 79.0 °F - 75.9 °F 90% 29.82 in 10.0 mi SW 9.2 mph - N/A   Mostly Cloudy
5:56 AM 79.0 °F - 77.0 °F 94% 29.83 in 10.0 mi SW 10.4 mph - N/A   Scattered Clouds
6:45 AM 80.1 °F 85.8 °F 77.0 °F 90% 29.86 in 10.0 mi SSW 12.7 mph 21.9 mph N/A   Mostly Cloudy
6:56 AM 80.1 °F 85.8 °F 77.0 °F 90% 29.84 in 10.0 mi SW 10.4 mph 17.3 mph N/A   Mostly Cloudy
7:04 AM 80.1 °F 85.8 °F 77.0 °F 90% 29.86 in 10.0 mi SSW 12.7 mph - N/A   Mostly Cloudy
7:22 AM 80.1 °F 85.8 °F 77.0 °F 90% 29.87 in 9.0 mi SSW 10.4 mph - N/A   Scattered Clouds
7:56 AM 80.1 °F 85.8 °F 77.0 °F 90% 29.84 in 10.0 mi SW 10.4 mph - N/A   Scattered Clouds
8:56 AM 82.0 °F 90.2 °F 77.0 °F 85% 29.86 in 10.0 mi SW 11.5 mph 19.6 mph N/A   Partly Cloudy
9:56 AM 84.9 °F 96.6 °F 78.1 °F 80% 29.85 in 10.0 mi SW 13.8 mph 21.9 mph N/A   Scattered Clouds
10:05 AM 84.0 °F 94.8 °F 78.1 °F 82% 29.87 in 10.0 mi SSW 12.7 mph - N/A   Mostly Cloudy
10:56 AM 87.1 °F 99.8 °F 78.1 °F 74% 29.83 in 10.0 mi South 10.4 mph - N/A   Scattered Clouds
11:23 AM 87.1 °F 99.8 °F 78.1 °F 74% 29.85 in 10.0 mi South 12.7 mph 21.9 mph N/A   Mostly Cloudy
11:56 AM 87.1 °F 99.8 °F 78.1 °F 74% 29.84 in 10.0 mi SSW 11.5 mph - N/A   Overcast
12:56 PM 86.0 °F 98.3 °F 78.1 °F 77% 29.86 in 10.0 mi SW 13.8 mph 23.0 mph N/A   Overcast
1:25 PM 87.1 °F 101.5 °F 79.0 °F 77% 29.89 in 10.0 mi SSW 12.7 mph 18.4 mph N/A   Mostly Cloudy
1:56 PM 91.0 °F 107.6 °F 79.0 °F 68% 29.85 in 10.0 mi South 13.8 mph 21.9 mph N/A   Scattered Clouds
2:11 PM 89.1 °F 104.4 °F 79.0 °F 72% 29.87 in 10.0 mi SW 12.7 mph 18.4 mph N/A   Mostly Cloudy
2:33 PM 90.0 °F 105.8 °F 79.0 °F 70% 29.87 in 10.0 mi SSW 13.8 mph 27.6 mph N/A   Mostly Cloudy
2:56 PM 89.1 °F 104.4 °F 79.0 °F 72% 29.84 in 10.0 mi SW 10.4 mph 20.7 mph N/A   Mostly Cloudy
3:56 PM 91.9 °F 108.8 °F 79.0 °F 66% 29.84 in 10.0 mi SW 15.0 mph 24.2 mph N/A   Partly Cloudy
4:56 PM 91.9 °F 108.8 °F 79.0 °F 66% 29.83 in 10.0 mi SSW 16.1 mph 24.2 mph N/A   Scattered Clouds
5:56 PM 91.0 °F 104.2 °F 77.0 °F 63% 29.81 in 10.0 mi SSW 13.8 mph 28.8 mph N/A   Clear
6:56 PM 91.0 °F 104.2 °F 77.0 °F 63% 29.82 in 10.0 mi South 8.1 mph 20.7 mph N/A   Clear
7:56 PM 89.1 °F 101.4 °F 77.0 °F 67% 29.84 in 10.0 mi South 9.2 mph - N/A   Partly Cloudy
8:24 PM 88.0 °F 98.5 °F 75.9 °F 67% 29.87 in 10.0 mi South 9.2 mph - N/A Thunderstorm Mostly Cloudy
8:43 PM 88.0 °F 98.5 °F 75.9 °F 67% 29.88 in 10.0 mi South 5.8 mph - N/A Thunderstorm Thunderstorm
8:56 PM 87.1 °F 97.3 °F 75.9 °F 69% 29.85 in 10.0 mi SSE 5.8 mph - N/A Thunderstorm Scattered Clouds
9:43 PM 80.1 °F 83.2 °F 70.0 °F 71% 29.92 in - Variable 3.5 mph - N/A Thunderstorm Thunderstorm
9:56 PM 80.1 °F 82.9 °F 69.1 °F 69% 29.89 in 10.0 mi Variable 3.5 mph - N/A Thunderstorm Unknown
10:10 PM 79.0 °F - 69.1 °F 72% 29.90 in 10.0 mi South 6.9 mph - N/A   Mostly Cloudy
10:56 PM 79.0 °F - 71.1 °F 77% 29.85 in 10.0 mi SW 5.8 mph - N/A   Clear
11:56 PM 81.0 °F 86.7 °F 75.0 °F 82% 29.85 in 10.0 mi SSW 9.2 mph - N/A   Clear